Location: Beetenbrück
(52.8113°N, 9.5946°E)
Time: 21:53:36
(UTC+00:00)

COSMOS 2455 - Pass Details

Date: 14 April 2026
Orbit: 901 x 907 km, 67.1° (Epoch: 12 May)

Event Time Altitude Azimuth Distance (km) Brightness Sun altitude
Rises 22:46:50 0° 320° (NW) 3,545 6.8 -27.1°
Reaches altitude 10° 22:49:21 10° 319° (NW) 2,601 6.0 -27.1°
Maximum altitude 22:55:23 77° 235° (SW) 935 2.7 -27.3°
Enters shadow 22:55:36 76° 211° (SSW) 938 2.7 -27.3°
